RH
68 67 68 67 66 67 67 66 66 68 69 70 71 71 71 71 71 70 71 71 71 70 72 74 75 73 58 42 26 16 40 38 31 30 26 23 20 18 18 15 14 22 17 14 15 16 15
71 70 68 69 69 69 68 65 66 69 70 72 72 72 73 73 72 71 70 71 73 74 75 76 75 74 58 39 20 20 23 21 20 27 25 29 24 22 23 22 22 18 20 18 18 18 18
77 71 69 72 71 73 67 68 69 72 71 70 69 72 74 72 71 70 71 73 77 76 77 80 79 64 58 36 24 23 26 20 20 20 22 23 26 24 22 24 20 21 24 20 19 18 20
76 70 73 73 75 71 72 72 70 66 68 67 68 69 70 72 72 73 74 77 79 78 81 80 79 61 51 29 27 33 25 25 26 22 21 18 21 23 22 19 22 24 22 25 16 22 21
74 73 73 74 73 70 70 68 65 66 67 67 69 69 70 72 77 78 79 76 75 80 80 79 64 61 40 38 37 29 30 26 25 28 24 19 22 23 25 27 25 25 23 23 22 18 19
79 75 73 69 69 71 68 64 64 67 68 68 69 70 71 72 77 79 79 73 71 80 64 56 58 75 41 31 31 28 25 26 23 24 27 25 23 28 28 30 28 21 23 21 26 23 24
84 81 71 67 71 68 64 63 66 72 68 69 70 70 72 73 72 74 56 34 27 38 35 24 26 39 26 19 22 24 24 25 23 23 26 24 26 27 24 26 21 24 30 28 22 19 23
89 79 70 68 68 71 74 74 74 70 69 71 70 70 73 74 71 67 38 42 49 51 48 34 37 40 33 32 35 23 25 29 33 36 30 39 36 21 21 24 29 28 28 30 28 26 28
85 79 71 71 69 69 68 73 72 71 71 71 71 71 75 76 61 54 39 45 39 48 56 33 34 38 34 40 39 34 26 27 32 32 38 34 24 37 33 34 36 34 39 37 39 35 31
83 79 75 73 73 70 70 71 70 69 67 68 70 73 78 77 49 44 41 39 42 56 35 15 36 36 37 36 43 31 26 24 30 33 30 35 29 36 40 37 39 41 36 40 41 41 31
85 79 74 72 72 71 71 70 68 67 67 67 70 74 75 74 49 32 39 43 51 67 14 19 36 28 27 38 29 32 27 24 28 31 37 32 41 52 44 37 38 37 40 40 40 44 43
80 74 68 66 67 69 72 71 69 68 68 69 70 72 72 54 51 42 48 52 65 33 10 18 28 23 18 24 28 28 30 29 29 35 38 34 30 43 40 42 36 36 40 33 35 43 55
78 71 64 64 64 64 66 68 71 67 68 70 71 72 62 52 46 53 56 52 21 12 10 27 34 23 17 26 28 30 33 35 32 41 39 30 32 35 40 44 39 40 38 33 44 60 44
73 69 68 67 69 72 73 70 67 65 68 70 71 72 67 51 56 62 52 23 13 15 23 28 28 21 18 26 21 28 31 32 30 31 30 30 35 30 37 39 31 39 37 42 50 43 32
69 67 63 68 70 71 70 68 65 65 69 72 69 52 55 62 65 57 31 35 19 37 35 36 24 22 18 31 27 26 27 27 29 29 34 34 33 29 38 37 33 52 58 40 61 52 61
66 63 60 64 68 65 67 68 66 66 69 76 48 48 57 65 67 44 31 32 34 37 36 31 28 33 34 34 25 28 30 46 54 42 28 31 38 30 43 42 42 49 45 79 72 78 55
63 62 64 67 68 66 66 68 68 68 70 70 52 43 55 60 60 38 55 33 36 30 36 34 35 35 26 28 24 29 27 46 48 52 44 30 37 42 51 50 41 57 60 69 92 68 58
62 58 59 61 68 68 68 68 70 69 70 56 61 75 54 59 59 57 46 45 52 40 38 39 38 39 35 32 27 28 28 32 52 52 68 41 52 49 36 28 32 33 43 54 69 70 85
64 60 60 62 67 68 69 69 69 69 69 59 56 44 50 61 84 56 48 51 52 50 50 48 47 42 38 41 44 32 29 23 53 75 95 93 73 61 46 51 43 47 49 85 88 99 82
70 61 61 63 64 68 68 67 69 69 73 62 67 86 49 48 43 66 71 51 50 55 69 57 59 59 60 52 45 42 36 37 50 45 80 96 71 57 42 82 48 58 47 47 59 82 61
78 66 61 62 60 65 65 65 67 68 72 61 76 78 60 82 62 51 56 53 54 59 57 46 90 70 85 72 54 51 38 32 32 56 76 96 91 57 57 67 58 38 35 34 44 47 59
76 75 63 65 60 62 65 66 67 69 70 59 96 65 50 50 55 54 56 44 46 50 47 44 74 48 43 61 69 91 69 56 53 62 76 98 91 57 62 60 44 42 32 26 31 37 36
61 63 68 65 63 66 66 67 69 70 64 60 86 74 56 62 50 48 46 44 50 46 44 45 46 53 53 58 67 57 55 56 65 78 100 99 100 66 60 47 39 41 30 30 32 30 44
63 61 64 63 62 68 68 68 70 72 65 51 70 80 73 63 40 42 44 42 46 48 56 46 42 64 48 38 49 50 53 53 52 54 77 98 97 68 52 42 45 35 26 31 39 37 46
68 69 63 62 66 70 71 71 71 72 74 57 62 61 68 75 39 42 46 45 44 48 50 46 42 43 44 62 74 51 52 60 55 50 61 83 98 78 54 45 31 24 44 44 48 44 55
71 67 61 63 73 75 72 71 71 75 76 62 61 60 68 77 53 41 48 44 50 48 51 51 43 46 64 78 83 81 75 42 37 46 54 69 64 89 57 50 45 50 45 40 39 44 58
68 64 64 69 77 75 72 71 71 72 77 68 66 62 68 99 49 57 54 55 50 59 59 54 62 57 62 82 88 90 84 40 38 44 72 71 67 71 57 52 40 50 48 46 47 73 68
67 67 69 74 74 75 73 76 74 74 76 72 62 68 58 79 50 53 52 55 56 62 69 59 65 69 69 79 78 91 92 62 53 43 51 52 61 68 57 63 59 60 55 61 86 83 76
70 70 75 76 76 78 72 69 70 72 77 73 69 65 62 78 55 62 54 48 46 47 58 56 72 84 75 83 72 80 89 73 64 57 51 76 78 72 56 72 73 74 78 85 83 90 90
Wind_Speed
16 14 12 11 9 7 6 4 3 2 3 5 8 9 10 12 14 15 16 17 19 21 19 18 13 11 10 7 10 4 1 1 6 9 10 11 12 11 13 9 15 17 19 17 17 19 22
16 14 12 12 11 9 7 5 3 4 3 5 7 9 11 13 15 17 19 19 19 21 19 18 11 6 8 9 4 2 2 3 8 9 9 9 6 9 8 10 13 3 9 14 13 16 19
16 14 14 13 11 9 7 5 2 3 1 5 8 9 11 15 17 19 19 22 21 21 19 15 6 10 10 15 2 3 5 7 6 12 12 11 8 9 4 8 10 10 14 15 17 18 18
18 15 12 11 12 8 6 4 4 2 2 5 7 9 12 16 18 20 22 21 21 19 9 1 13 9 9 2 7 10 9 11 11 9 11 7 8 12 10 9 10 11 12 16 6 5 9
17 16 11 12 9 7 6 4 3 3 3 4 7 10 13 16 18 20 22 20 14 4 6 13 9 6 7 2 5 1 7 5 4 9 7 4 6 11 7 11 11 10 11 11 11 11 13
18 15 13 10 8 8 7 5 4 3 1 4 8 11 14 16 18 20 20 13 3 7 7 4 1 5 5 3 6 5 2 6 6 8 10 9 8 9 10 10 10 7 10 11 10 4 13
17 17 14 12 11 9 6 4 4 4 1 4 8 11 14 16 18 17 10 3 3 6 4 8 8 11 15 10 10 5 0 6 8 11 11 14 12 15 16 16 17 14 13 17 16 16 19
18 15 14 12 9 8 5 7 7 4 2 5 8 10 13 15 14 13 7 6 4 5 9 5 9 8 12 8 6 8 7 9 10 13 8 8 15 14 12 13 16 17 15 16 16 12 13
12 11 10 12 10 8 6 7 6 4 4 5 8 10 13 17 3 2 11 7 3 4 6 3 3 4 3 5 4 3 8 11 10 13 12 14 5 3 12 13 14 14 14 12 14 14 19
13 11 10 11 11 8 7 6 5 4 3 6 8 10 12 17 4 3 3 5 5 6 5 4 3 4 3 4 4 2 5 7 8 10 9 11 10 11 10 12 10 10 3 6 9 9 9
13 11 11 11 10 8 6 5 5 3 4 7 8 9 11 11 3 0 5 8 2 5 5 4 5 4 1 6 7 5 5 8 8 8 6 2 5 6 14 17 10 9 3 7 11 13 14
15 12 10 8 9 7 5 5 4 2 3 6 8 9 11 2 3 3 8 8 6 6 2 3 2 6 11 1 1 5 6 5 4 7 11 13 3 6 9 5 9 3 9 12 13 9 9
14 11 8 6 6 7 6 5 5 2 4 6 8 9 6 4 5 10 7 4 6 6 2 5 4 8 12 6 4 4 7 8 8 6 8 4 13 11 10 10 8 10 8 5 8 6 6
14 11 8 7 5 8 9 8 3 1 4 6 7 6 1 4 7 7 4 6 6 5 3 5 5 13 7 6 2 6 6 11 10 9 7 7 6 9 9 13 3 10 11 7 7 4 6
14 12 10 8 8 9 8 6 2 2 5 7 3 2 1 7 7 5 5 4 6 4 4 9 12 9 6 2 6 7 8 8 4 10 8 4 5 5 8 4 9 7 8 4 7 13 8
14 11 9 8 9 7 6 5 2 2 5 5 1 2 4 10 9 4 2 4 1 3 6 4 5 3 7 7 9 8 6 5 5 3 8 2 8 5 3 6 6 8 3 3 5 5 6
14 11 10 9 8 7 6 5 3 3 4 1 1 2 3 10 6 1 3 4 1 1 5 4 4 8 9 11 9 10 8 6 8 7 7 7 8 6 7 10 8 7 8 4 2 7 5
14 11 10 9 7 8 6 5 3 2 2 2 1 1 4 7 2 2 4 3 3 3 1 4 6 8 11 12 16 15 16 9 9 9 8 3 6 11 15 7 8 10 8 9 5 5 2
14 11 10 8 7 8 7 5 3 1 3 1 2 2 1 5 3 4 5 3 1 2 5 3 4 5 9 12 9 11 16 15 5 4 6 7 5 8 8 7 10 11 7 5 3 2 4
16 13 10 10 5 8 7 5 3 2 3 1 2 3 3 3 4 5 3 3 3 3 2 3 7 7 9 10 13 12 14 7 5 12 4 8 7 11 9 3 3 9 11 10 6 4 4
13 13 10 9 8 7 7 5 5 2 3 2 2 2 2 5 5 4 2 1 1 3 3 1 3 1 6 7 15 12 18 19 16 4 2 3 8 12 5 2 13 4 7 8 11 10 7
17 17 10 11 8 8 7 7 6 5 2 1 3 2 2 6 5 3 3 2 2 1 3 2 4 10 12 9 13 15 11 12 11 5 3 1 5 10 7 8 17 10 10 8 8 5 9
13 14 14 12 10 9 8 7 6 8 4 2 2 2 3 4 5 2 3 2 2 7 4 7 9 14 11 7 10 17 17 16 17 14 4 3 6 10 6 8 8 11 11 5 4 4 5
13 11 12 11 11 10 9 8 9 11 1 1 3 2 2 4 3 2 2 6 8 9 11 12 13 9 8 17 19 19 19 19 19 18 11 4 11 5 4 3 6 8 3 1 3 2 9
13 14 13 12 12 12 9 8 7 14 7 2 3 2 1 2 3 4 6 7 7 7 11 12 10 8 15 12 8 10 7 9 14 18 12 12 4 4 2 3 6 3 6 6 7 5 10
15 16 14 14 12 14 11 9 9 12 10 4 3 1 2 1 3 4 5 3 6 5 6 5 8 11 6 4 4 6 5 5 6 6 6 7 12 8 3 1 2 8 4 9 7 4 11
15 14 13 11 12 11 10 11 11 12 15 6 3 5 2 2 3 4 4 5 2 4 5 6 10 5 1 4 5 6 8 9 5 8 7 6 8 11 6 4 2 7 10 6 7 6 12
14 11 11 13 12 11 10 11 10 11 17 8 4 8 4 3 4 6 5 7 7 5 5 7 7 0 5 5 4 4 4 5 2 2 5 6 6 4 3 3 3 14 2 5 7 5 7
14 13 13 13 11 12 10 9 9 8 17 11 3 6 5 3 4 4 9 12 14 11 7 2 5 5 3 5 4 5 4 6 6 3 4 2 6 4 6 6 6 9 9 6 8 7 5
Wind_Direction
189 186 186 184 194 201 214 215 230 256 292 316 323 324 327 323 322 323 320 317 313 314 311 304 304 307 293 247 259 106 310 45 167 189 201 195 198 215 230 232 242 241 258 262 260 255 260
183 178 196 193 197 199 205 220 238 247 288 337 330 322 323 320 322 320 318 314 312 309 305 296 289 260 249 259 56 201 251 271 232 210 208 214 230 234 272 240 235 304 261 263 261 258 252
180 185 194 198 199 196 202 235 261 135 85 344 339 331 328 324 324 319 317 311 311 305 300 291 224 208 245 258 329 243 274 259 260 235 234 220 236 232 298 246 256 266 271 265 255 252 248
176 189 195 198 185 201 193 160 125 122 36 4 356 351 334 328 321 320 314 312 309 307 301 257 161 192 254 208 296 271 247 245 231 230 254 250 212 251 242 279 258 265 262 267 246 241 234
179 176 174 160 157 156 167 175 153 103 42 6 355 342 337 330 326 319 311 314 318 334 126 129 166 244 277 131 240 238 204 251 198 199 219 275 195 230 223 245 262 230 270 258 277 251 274
177 174 170 165 165 187 186 178 160 143 44 2 349 342 336 332 326 317 318 320 171 161 184 232 72 234 234 20 338 319 227 255 230 166 196 210 210 222 213 226 242 252 239 261 265 258 297
176 173 172 170 173 180 193 197 177 157 90 5 347 338 337 333 331 329 325 209 240 193 222 278 329 285 291 315 300 246 279 221 205 200 203 197 220 224 229 228 259 277 272 276 276 277 281
170 171 180 170 170 150 118 136 128 128 51 4 347 338 329 335 337 340 7 64 51 327 305 286 267 262 271 286 278 252 249 224 204 215 202 184 232 253 243 240 236 250 262 269 281 277 274
159 159 162 157 149 133 125 122 121 91 25 349 334 335 339 337 336 22 62 64 342 216 268 287 225 263 348 179 254 272 218 219 228 226 220 247 283 327 237 229 233 239 257 277 287 298 270
147 140 139 146 137 128 124 123 108 79 3 341 341 342 348 335 220 20 104 9 337 208 273 97 141 120 175 254 235 244 226 230 213 258 236 262 281 247 238 236 225 247 229 267 279 289 286
135 130 139 137 128 129 130 128 110 79 0 340 347 347 352 359 349 11 355 331 328 207 292 85 92 102 254 259 322 138 184 187 233 214 208 223 248 223 232 243 221 261 276 278 279 271 292
138 152 140 137 133 144 154 147 124 59 345 335 338 341 336 218 271 353 322 310 204 238 201 126 73 352 349 9 266 136 187 235 289 239 229 263 248 250 251 247 211 280 272 266 254 254 257
141 142 141 153 159 170 177 166 126 84 346 339 334 336 319 313 336 328 304 218 233 246 82 51 352 343 324 316 304 258 214 206 229 228 208 221 237 229 233 235 219 231 264 262 215 191 253
144 145 154 163 150 145 131 119 111 43 346 346 343 320 26 36 325 324 275 225 246 60 12 18 324 306 283 341 243 321 251 251 221 243 275 276 205 191 185 219 254 212 223 270 285 256 305
153 153 152 140 136 135 126 121 121 336 341 351 305 182 10 0 332 312 258 229 10 12 355 337 312 287 264 298 325 307 250 278 300 218 240 231 231 151 194 185 216 153 215 297 281 251 265
149 149 150 154 149 139 140 138 156 308 342 6 252 159 48 337 330 289 232 75 85 24 333 325 287 348 298 340 315 342 269 40 340 336 285 278 263 216 144 185 200 261 85 226 219 248 249
147 144 139 146 152 149 145 153 184 261 1 314 194 194 36 332 282 62 87 74 13 13 341 305 303 290 291 301 304 305 284 78 3 338 301 244 238 165 176 212 214 185 215 192 267 278 299
156 153 155 151 152 146 136 136 150 240 343 307 195 119 8 312 86 54 88 46 353 343 335 277 284 287 280 291 277 268 261 294 356 345 324 238 271 247 242 244 264 239 243 204 252 169 257
169 158 152 144 164 145 134 126 127 258 346 152 79 85 74 283 98 106 111 141 252 345 1 343 289 292 310 294 292 260 266 272 324 22 351 346 233 242 227 214 218 224 201 111 68 19 279
187 171 162 156 130 152 136 136 153 205 120 281 153 128 115 73 74 110 117 89 103 87 94 301 302 327 328 296 265 256 267 263 269 302 207 313 254 253 276 343 282 190 186 190 187 209 281
173 171 173 170 158 155 144 148 155 176 131 243 13 91 9 149 116 90 132 76 27 343 204 299 148 75 3 299 307 262 258 264 280 203 267 146 257 224 209 358 294 253 202 200 213 237 257
161 179 194 165 167 181 168 172 169 183 172 74 120 175 182 123 133 136 83 87 322 353 287 316 245 307 313 276 293 302 325 306 280 348 287 226 267 195 199 192 246 246 237 242 245 261 265
176 179 176 166 176 188 175 175 178 182 255 108 58 344 271 144 146 171 102 86 282 321 271 247 314 310 303 320 280 289 284 268 259 279 280 256 276 183 182 182 249 250 229 206 250 274 318
180 182 176 177 185 179 184 187 185 178 279 96 131 149 183 141 192 150 239 294 296 295 276 295 296 279 308 314 294 269 250 249 251 250 227 261 286 316 131 213 224 88 352 43 289 320 14
185 176 183 190 194 187 187 184 182 186 169 172 147 194 169 177 255 234 252 270 284 273 268 288 302 307 315 295 285 289 248 233 237 235 212 218 259 277 253 208 329 196 53 28 360 68 27
186 182 196 199 210 188 188 186 177 181 169 179 170 116 106 157 227 290 267 267 290 296 281 277 311 311 289 284 265 261 278 251 171 157 171 214 249 267 183 248 231 74 39 353 319 221 13
188 192 197 205 187 183 190 194 193 188 180 191 156 177 126 212 248 221 247 315 308 269 281 308 336 315 294 305 270 270 214 226 198 188 185 161 210 228 229 246 259 38 339 323 250 29 2
197 204 201 189 190 191 201 202 203 208 177 185 153 194 195 214 270 228 235 249 243 246 280 347 306 68 305 303 305 335 329 32 287 95 162 194 189 189 208 246 244 1 44 341 353 341 10
199 206 208 191 196 184 183 188 192 183 170 185 185 180 204 265 323 319 279 269 254 266 295 278 300 301 323 298 354 300 317 356 349 143 32 95 9 348 345 30 57 36 55 35 20 59 43